[[{"header":{"parameterUnit":"m.s-1","parameterCategory":1,"la1":30.2991,"la2":30.254,"lo1":-89.0895,"lo2":-89.0444,"dy":0.0017,"dx":0.0017,"nx":28,"ny":28,"refTime":"2025-06-18T03:00:00:Z","depth":0,"parameterNumber":2,"parameterNumberName":"U-component_of_WINDS"},"data":[0,0,0,0,0,0,0,0,0,0,0,0,0,0,0,0,0,0,0,0,0,0,0,0,0,0,0,0,0,0,0,0,0,0,0,0,0,0,0,0,0,0,0,0,0,0,0,0,0,0,0,0,0,0,0,0,0,0,0.1641,0.1641,0,0.1637,0.1637,0.1637,0.1634,0.1634,0.1634,0.1634,0.1629,0.1629,0.1629,0,0,0,0,0,0,0,0,0,0,0,0,0,0.1643,0.1643,0.1641,0.1641,0.1641,0.1637,0.1637,0.1637,0.1634,0.1634,0.1634,0.1634,0.1629,0.1629,0.1629,0,0,0,0,0,0,0,0,0,0,0,0,0,0.1641,0.1643,0.1641,0.1639,0.1639,0.1637,0.1637,0.1637,0.1634,0.1634,0.1634,0.1634,0.1629,0.1629,0.1629,0.1628,0,0,0.1628,0.1628,0,0,0,0,0,0,0,0,0.1641,0.1641,0.1639,0.1639,0.1639,0.1636,0.1636,0.1634,0.1634,0.1636,0.1634,0.1634,0.1631,0.1631,0.163,0.1628,0.1628,0.1628,0.1628,0.1628,0.1628,0,0,0,0,0,0,0,0.1641,0.1641,0.1639,0.1639,0.1639,0.1637,0.1637,0.1635,0.1634,0.1636,0.1635,0.1635,0.1631,0.163,0.163,0.1628,0.1628,0.1628,0.1628,0.1628,0.1623,0.1623,0,0,0,0,0,0,0.1642,0.1641,0.1639,0.1639,0.164,0.1637,0.1637,0.1637,0.1634,0.1633,0.1635,0.1635,0.1631,0.163,0.163,0.1628,0.1628,0.1628,0.1628,0.1623,0.1623,0.1623,0,0,0,0,0,0,0.1642,0.1642,0.164,0.164,0.164,0.1637,0.1637,0.1637,0.1636,0.1633,0.1633,0.1635,0.163,0.163,0.1628,0.1628,0.1628,0.1627,0.1623,0.1623,0.1623,0.1625,0,0,0,0,0,0,0.1642,0.1642,0.1643,0.164,0.164,0.1639,0.1637,0.1637,0.1636,0.1636,0.1633,0.1632,0.163,0.1628,0.1628,0.1627,0.1627,0.1623,0.1623,0.1623,0.1625,0.1625,0.1625,0,0,0,0,0,0.1642,0.1643,0.1643,0.1642,0.164,0.1639,0.1639,0.1637,0.1636,0.1636,0.1634,0.1632,0.1628,0.1628,0.1628,0.1627,0.1623,0.1623,0.1623,0.1625,0.1625,0.1625,0,0,0,0,0,0,0.1646,0.1643,0.1642,0.1643,0.1641,0.1638,0.1639,0.1637,0.1635,0.1635,0.1632,0.1632,0.163,0.1628,0.1629,0.1626,0.1625,0.1625,0.1627,0.1627,0.1627,0.1627,0.1627,0,0,0,0,0,0.1647,0.1646,0.1644,0.1644,0.1644,0.1641,0.164,0.1639,0.1637,0.1636,0.1634,0.1632,0.1629,0.1628,0.1626,0.1625,0.1623,0.1624,0.1624,0.1624,0.1624,0.1621,0.1621,0.1623,0.1623,0.1623,0,0,0.1649,0.1647,0.1647,0.1645,0.1644,0.1642,0.1641,0.164,0.1638,0.1636,0.1634,0.1632,0.1629,0.1627,0.1626,0.1626,0.1622,0.1624,0.1624,0.1623,0.1621,0.1621,0.162,0.1623,0.1623,0.1623,0,0,0.1651,0.165,0.165,0.1648,0.1646,0.1644,0.1644,0.1641,0.164,0.1638,0.1635,0.1633,0.163,0.1627,0.1626,0.1625,0.1623,0.1624,0.1625,0.1622,0.1622,0.1622,0.162,0.162,0.1624,0.1624,0.1624,0,0.1654,0.1652,0.165,0.1649,0.1647,0.1645,0.1644,0.1642,0.1639,0.1637,0.1637,0.1632,0.163,0.1626,0.1626,0.1625,0.1624,0.1625,0.1622,0.1622,0.1622,0.162,0.162,0.1624,0.1624,0.1624,0.1624,0,0.1655,0.1653,0.1653,0.165,0.1649,0.1648,0.1644,0.1643,0.1641,0.1639,0.1635,0.1633,0.1629,0.1628,0.1627,0.1624,0.1624,0.1623,0.1622,0.1622,0.162,0.162,0.1624,0.1624,0.1624,0.1624,0,0,0.166,0.1655,0.1655,0.1652,0.1649,0.1647,0.1645,0.1642,0.164,0.1638,0.1635,0.1631,0.163,0.1628,0.1626,0.1624,0.1622,0.1623,0.1623,0.1622,0.1617,0.1617,0.1616,0.162,0.162,0.162,0.1616,0,0.1661,0.1658,0.1655,0.1653,0.1651,0.1647,0.1645,0.1642,0.1639,0.1637,0.1633,0.1631,0.163,0.1628,0.1626,0.1622,0.162,0.1623,0.1617,0.1617,0.1617,0.1616,0.1616,0.1613,0.1616,0.1616,0.1616,0,0.1663,0.166,0.1657,0.1652,0.1651,0.1649,0.1645,0.1643,0.1638,0.1636,0.1633,0.1631,0.1627,0.1627,0.1621,0.1622,0.162,0.1617,0.1617,0.1616,0.1616,0.1614,0.1612,0.1611,0.1615,0.1615,0.1615,0,0.1666,0.1661,0.1658,0.1657,0.1651,0.165,0.1647,0.1643,0.164,0.1636,0.1634,0.163,0.1627,0.1624,0.1619,0.162,0.1613,0.1613,0.1611,0.1611,0.1609,0.161,0.1607,0.1609,0.1609,0.1609,0.1609,0,0.1667,0.1665,0.166,0.1658,0.1655,0.1651,0.1648,0.1645,0.1641,0.1638,0.1635,0.1631,0.1626,0.1622,0.1619,0.1614,0.1613,0.161,0.1609,0.161,0.161,0.1608,0.1608,0.1609,0.1609,0.1609,0.1609,0,0.167,0.1666,0.1663,0.1657,0.1656,0.1654,0.1649,0.1646,0.1643,0.1638,0.1637,0.1632,0.1627,0.1622,0.1615,0.1613,0.1607,0.1606,0.1609,0.1608,0.1606,0.1606,0.1601,0.1599,0.1603,0.1603,0.1603,0,0.1671,0.1669,0.1663,0.1661,0.1658,0.1655,0.1652,0.1647,0.1644,0.1638,0.1636,0.1631,0.1626,0.1618,0.1613,0.1607,0.1606,0.1604,0.1605,0.1605,0.1604,0.1604,0.1603,0.1604,0.1604,0.1604,0.1604,0,0.1673,0.167,0.1667,0.1662,0.1658,0.1654,0.165,0.1648,0.1643,0.1639,0.1634,0.163,0.1623,0.1617,0.161,0.1607,0.1604,0.1604,0.1603,0.1604,0.1604,0.1603,0.1608,0.1604,0.1604,0.1604,0.1604,0.1604,0.1674,0.1672,0.1666,0.1662,0.1658,0.1654,0.1651,0.1647,0.1642,0.1636,0.1633,0.1627,0.1621,0.1612,0.1608,0.1603,0.1602,0.1601,0.1601,0.16,0.16,0.1606,0.1602,0.1602,0.1602,0.1602,0.1602,0,0.1674,0.1671,0.1666,0.166,0.1656,0.1654,0.1649,0.1645,0.164,0.1635,0.163,0.1623,0.1617,0.1611,0.1604,0.1601,0.1599,0.1599,0.1599,0.1598,0.1601,0.1602,0.16,0.16,0.16,0.16,0.16,0.16,0.1674,0.167,0.1667,0.1659,0.1655,0.165,0.1647,0.1642,0.1638,0.163,0.1625,0.1621,0.1615,0.1607,0.1601,0.1599,0.1596,0.1596,0.1594,0.1598,0.1598,0.1598,0.1599,0.1596,0.1596,0.1591,0.1591,0.1591]},{"header":{"parameterUnit":"m.s-1","parameterCategory":1,"la1":30.2991,"la2":30.254,"lo1":-89.0895,"lo2":-89.0444,"dy":0.0017,"dx":0.0017,"nx":28,"ny":28,"refTime":"2025-06-18T03:00:00:Z","depth":0,"parameterNumber":3,"parameterNumberName":"V-component_of_WINDS"},"data":[0,0,0,0,0,0,0,0,0,0,0,0,0,0,0,0,0,0,0,0,0,0,0,0,0,0,0,0,0,0,0,0,0,0,0,0,0,0,0,0,0,0,0,0,0,0,0,0,0,0,0,0,0,0,0,0,0,0,4.8803,4.8803,0,4.8837,4.8837,4.8838,4.8781,4.8779,4.8777,4.8775,4.8807,4.881,4.8813,0,0,0,0,0,0,0,0,0,0,0,0,0,4.8685,4.8687,4.8803,4.8803,4.8804,4.8837,4.8837,4.8838,4.8781,4.8779,4.8777,4.8774,4.8807,4.881,4.8813,0,0,0,0,0,0,0,0,0,0,0,0,0,4.8729,4.8688,4.8803,4.878,4.8778,4.8837,4.8837,4.8838,4.8782,4.8779,4.8776,4.8773,4.8805,4.8809,4.8813,4.8896,0,0,4.8825,4.8827,0,0,0,0,0,0,0,0,4.8727,4.8734,4.8783,4.8781,4.878,4.8802,4.8807,4.8857,4.8782,4.878,4.8775,4.8772,4.8808,4.8811,4.8824,4.8897,4.8899,4.8826,4.8828,4.883,4.8831,0,0,0,0,0,0,0,4.8724,4.8732,4.8816,4.8783,4.8782,4.8766,4.8769,4.8817,4.881,4.878,4.8776,4.8781,4.8806,4.882,4.8824,4.8899,4.8826,4.8829,4.8832,4.8833,4.9038,4.9041,0,0,0,0,0,0,4.8724,4.873,4.8815,4.8817,4.8746,4.8771,4.8774,4.8798,4.8809,4.8808,4.8784,4.8778,4.8815,4.882,4.8825,4.892,4.883,4.8834,4.8836,4.9035,4.9039,4.9042,0,0,0,0,0,0,4.8722,4.8732,4.8814,4.8772,4.8782,4.8776,4.8803,4.88,4.8814,4.8812,4.881,4.8799,4.8813,4.882,4.8878,4.892,4.8835,4.8839,4.9032,4.9036,4.9041,4.9112,0,0,0,0,0,0,4.8719,4.8732,4.8764,4.8774,4.8784,4.8868,4.8805,4.8802,4.8821,4.8814,4.8826,4.8825,4.8811,4.8872,4.8882,4.8924,4.8842,4.9028,4.9034,4.9039,4.9106,4.9119,4.913,0,0,0,0,0,4.8715,4.8783,4.8766,4.8777,4.8825,4.887,4.8876,4.8859,4.8825,4.8856,4.8854,4.8825,4.8915,4.8879,4.8889,4.8934,4.9025,4.9032,4.9039,4.9101,4.9116,4.9129,0,0,0,0,0,0,4.8779,4.8784,4.8765,4.8839,4.8855,4.8861,4.89,4.8877,4.8902,4.8895,4.8872,4.8875,4.8937,4.8941,4.8902,4.9012,4.8964,4.8973,4.9007,4.9022,4.9034,4.9031,4.8845,0,0,0,0,0,4.8801,4.8839,4.8841,4.8906,4.8915,4.8907,4.8926,4.8911,4.8926,4.8932,4.8935,4.895,4.8981,4.9002,4.9031,4.9107,4.9107,4.9142,4.9154,4.9163,4.9171,4.9209,4.9224,4.9065,4.9065,4.9065,0,0,4.8849,4.8856,4.8882,4.8919,4.893,4.8967,4.8912,4.8955,4.8983,4.8939,4.8993,4.8996,4.901,4.9077,4.9107,4.9083,4.9215,4.9172,4.918,4.9182,4.9218,4.9233,4.9246,4.907,4.9069,4.9068,0,0,4.8954,4.8965,4.9018,4.903,4.9046,4.9039,4.9052,4.9062,4.9061,4.9116,4.9083,4.9115,4.917,4.9181,4.9194,4.9301,4.9274,4.9311,4.9372,4.9409,4.9422,4.9433,4.9469,4.9482,4.9319,4.9319,4.932,0,4.901,4.9067,4.9049,4.9094,4.911,4.9072,4.9125,4.9137,4.9162,4.9173,4.9146,4.9212,4.922,4.9287,4.9313,4.9326,4.9338,4.9309,4.9422,4.9432,4.9442,4.9476,4.949,4.9324,4.9323,4.9323,4.9322,0,4.9134,4.9174,4.9216,4.924,4.9261,4.931,4.9298,4.9321,4.9305,4.93,4.9355,4.9363,4.9391,4.9407,4.9391,4.9471,4.9455,4.9426,4.9376,4.9462,4.9493,4.9506,4.933,4.9328,4.9327,4.9326,0,0,4.9281,4.9294,4.9309,4.9319,4.9333,4.9363,4.9409,4.9437,4.9456,4.9475,4.9511,4.9558,4.9529,4.9544,4.9529,4.9562,4.9643,4.9527,4.9527,4.9547,4.9729,4.9751,4.9766,4.9626,4.9628,4.963,4.9727,0,4.9384,4.9464,4.9448,4.9525,4.956,4.9524,4.9563,4.9576,4.9573,4.9601,4.9597,4.9629,4.9591,4.9599,4.963,4.9627,4.9679,4.962,4.9657,4.9659,4.9653,4.9783,4.9806,4.9897,4.974,4.9742,4.9743,0,4.9515,4.9537,4.9618,4.9625,4.9639,4.9675,4.9698,4.9726,4.9738,4.9733,4.9749,4.9727,4.9771,4.9722,4.9781,4.974,4.9755,4.9756,4.9759,4.976,4.9705,4.9786,4.9926,4.9939,4.9763,4.9761,4.976,0,4.9611,4.9661,4.9715,4.9725,4.9735,4.976,4.9765,4.9775,4.9792,4.9812,4.9822,4.9848,4.9861,4.988,4.9865,4.9831,4.9925,4.9875,4.9921,4.9921,4.9941,4.9939,5.0084,4.9954,4.9953,4.9953,4.9953,0,4.9726,4.9777,4.9758,4.9792,4.9846,4.9826,4.9881,4.9881,4.9889,4.9921,4.9891,4.9921,4.99,4.9928,4.9917,4.9966,4.9972,4.9968,4.9964,4.997,4.997,4.9978,4.997,4.9957,4.9956,4.9955,4.9955,0,4.9842,4.9832,4.9889,4.9893,4.9895,4.9934,4.9937,4.9967,4.9961,5.0001,5.0009,5.0,5.0031,5.0018,5.0051,5.0043,5.0105,5.0094,5.0101,5.0098,5.0143,5.0138,5.0296,5.0314,5.0174,5.0175,5.0177,0,4.9916,4.9953,4.9961,4.998,4.9987,5.0018,5.0035,5.0017,5.0035,5.0051,5.0078,5.0107,5.0128,5.0179,5.0175,5.0199,5.0187,5.024,5.019,5.0194,5.0185,5.0182,5.0185,5.025,5.0251,5.0253,5.0254,0,5.0046,5.0039,5.0065,5.0089,5.011,5.0128,5.0143,5.016,5.0142,5.0164,5.0195,5.0212,5.0245,5.0273,5.0294,5.0297,5.0272,5.027,5.0281,5.0286,5.0288,5.0285,5.0127,5.0266,5.0265,5.0264,5.0263,5.0263,5.0142,5.0172,5.0182,5.0211,5.022,5.0235,5.0262,5.026,5.0286,5.0311,5.0298,5.0334,5.0343,5.0369,5.0376,5.0402,5.0381,5.0398,5.0402,5.0406,5.0411,5.0286,5.0406,5.0406,5.0406,5.0405,5.0405,0,5.0268,5.0272,5.03,5.0321,5.0344,5.0318,5.0333,5.0353,5.0385,5.0396,5.0417,5.0452,5.0478,5.0476,5.05,5.0521,5.051,5.0528,5.0525,5.0526,5.043,5.0416,5.0536,5.0536,5.0536,5.0536,5.0536,5.0536,5.0337,5.0387,5.038,5.0434,5.0437,5.0472,5.0482,5.0494,5.0502,5.0542,5.0564,5.0562,5.0567,5.0591,5.0613,5.0612,5.0621,5.0643,5.0637,5.0546,5.0533,5.0521,5.0508,5.0645,5.0645,5.073,5.0731,5.0732]}]]